Location: Nairn
(57.5833°N, 3.8667°W)
Time: 04:00:43
(UTC+00:00)

Altair - Pass Details

Date: 01 December 2020
Orbit: 1501 x 1682 km, 47.2° (Epoch: 17 January)

Event Time Altitude Azimuth Distance (km) Brightness Sun altitude
Rises 21:25:21 0° 236° (SW) 4,709 10.3 -44.2°
Reaches altitude 10° 21:28:39 10° 230° (SW) 3,705 9.6 -44.6°
Enters shadow 21:29:57 15° 226° (SW) 3,330 9.3 -44.7°
